Regional Weather Roundup
Issued by NWS

Home | Current Version | Previous Version | Text Only | Print | Product List | Glossary Off
Versions: 1 2 3 4 5 6 7 8 9 10 11 12 13 14 15 16 17 18 19 20 21 22 23 24 25 26 27 28 29 30 31 32 33 34 35 36 37 38 39 40 41 42 43 44 45 46 47 48 49 50

000
ASUS43 KOAX 021902
RWRNE

WEATHER ROUNDUP FOR NEBRASKA
NATIONAL WEATHER SERVICE OMAHA NE
200 PM CDT SUN AUG 02 2015

NOTES: SATELLITE DATA IS BEING USED TO AUGMENT CLOUD COVER ABOVE
       12000 FEET.
       "FAIR" INDICATES FEW OR NO CLOUDS BELOW 12,000 FEET WITH NO
       SIGNIFICANT WEATHER AND/OR OBSTRUCTIONS TO VISIBILITY.

  * THESE STATIONS DO NOT REPORT WEATHER SUCH AS RAIN...SNOW OR FOG.

NEZ001>004-019>022-054>056-022000-
NEBRASKA PANHANDLE

CITY           SKY/WX    TMP DP  RH WIND       PRES   REMARKS
SCOTTSBLUFF    SUNNY     92  58  31 CALM      29.99F HX  91
ALLIANCE       SUNNY     93  55  27 NE6       29.99F HX  91
CHADRON        SUNNY     88  55  32 E12       29.97F
KIMBALL        SUNNY     90  45  21 SW5       30.04S
SIDNEY         SUNNY     94  48  20 S12G20    30.03S HX  90
$$

NEZ057>060-069>072-079>082-022000-
SOUTHWEST NEBRASKA

CITY           SKY/WX    TMP DP  RH WIND       PRES   REMARKS
NORTH PLATTE   SUNNY     93  66  40 VRB5      29.92F HX  96
IMPERIAL       SUNNY     95  59  30 SW6       29.95F HX  94
LEXINGTON      SUNNY     94  64  36 S12       29.90F HX  95
MCCOOK         SUNNY     96  60  30 E9        29.92F HX  96
$$

NEZ005>010-023>029-035>040-094-022000-
NORTH CENTRAL NEBRASKA

CITY           SKY/WX    TMP DP  RH WIND       PRES   REMARKS
AINSWORTH      SUNNY     85  65  50 NE10      29.94R
BROKEN BOW     MOSUNNY   97  61  30 W9        29.90F HX  97
ORD            SUNNY     94  61  33 VRB6      29.86S HX  94
$$

NEZ041-046>049-061>064-073>077-083>087-022000-
SOUTH CENTRAL NEBRASKA

CITY           SKY/WX    TMP DP  RH WIND       PRES   REMARKS
GRAND ISLAND   SUNNY     93  71  48 SW13      29.88F HX 100
AURORA         SUNNY     90  74  60 W6        29.88F HX  99
HASTINGS       SUNNY     91  70  49 SW9       29.90S HX  96
HEBRON         SUNNY     92  66  43 W10       29.88S HX  94
HOLDREGE       SUNNY     92  64  39 SW6       29.92S HX  93
KEARNEY *      SUNNY     91  70  49 S9        29.90S HX  97
YORK           SUNNY     88  77  70 W13       29.87S HX 100
$$

NEZ011>018-030>034-042>045-022000-
NORTHEAST NEBRASKA

CITY           SKY/WX    TMP DP  RH WIND       PRES   REMARKS
NORFOLK        SUNNY     91  69  48 W7        29.84S HX  96
ALBION         SUNNY     91  70  50 SW6       29.86S HX  96
BLAIR          SUNNY     89  74  62 SW8       29.83S HX  97
COLUMBUS *     SUNNY     91  72  52 SW8       29.84S HX  98
FREMONT        SUNNY     91  73  55 W10       29.83F HX 100
TEKAMAH        SUNNY     90  73  57 SW10      29.80S HX  98
WAYNE          SUNNY     87  71  57 NW12      29.85R HX  92
$$

NEZ050>053-065>068-078-088>093-022000-
SOUTHEAST NEBRASKA

CITY           SKY/WX    TMP DP  RH WIND       PRES   REMARKS
LINCOLN        SUNNY     95  72  47 W13       29.85S HX 103
OMAHA EPPLEY   MOSUNNY   96  71  44 W14       29.81S HX 103
BEATRICE       SUNNY     91  73  55 SW9       29.87F HX  99
FALLS CITY     MOSUNNY   90  75  61 SW14      29.87S HX 100
NEBRASKA CITY  SUNNY     88  71  56 W13       29.85F HX  94
$$

NEZ044-045-051>053-067-022000-
OMAHA AREA

CITY           SKY/WX    TMP DP  RH WIND       PRES   REMARKS
OMAHA EPPLEY   MOSUNNY   96  71  44 W14       29.81S HX 103
BLAIR          SUNNY     89  74  62 SW8       29.83S HX  97
FREMONT        SUNNY     91  73  55 W10       29.83F HX 100
MILLARD        SUNNY     91  75  58 W10G16    29.82F HX 102
WAHOO          FAIR      91  74  57 W8        29.83S HX 101
$$



USA.gov is the U.S. government's official web portal to all federal, state and local government web resources and services.